NOAA 16 DEB, 41142

Orbit data source: Space-Track

NOAA 16 DEB, 41142 is space debris in SSO originally from a launch on Thu, 21 Sep 2000 UTC launched from the Air Force Western Test Range (AFWTR). Debris objects in space refer to the collection of defunct objects orbiting the Earth. Examples of debris include non-operational satellites, rocket bodies, and fragments generated from explosions, collisions, or faulty payload assembly.

Loading next visibility...
Identifier
41142, 2000-055BZ
Orbit
SSO
Country
Flag of USUS
Related business
Manufacturer
Unknown
Mission
Spacecraft
Bus & Motor
Unknown
Mass
Unknown
Launch date (UTC)
2000-09-21 (26 years ago)
Launch vehicle
Unknown
Launch site
Air Force Western Test Range (AFWTR)
Object type
Payload
Rocket body
Debris
Shape & HBR
Unknown shape, 0.1 m
Radar Cross Section
Small (<0.1 m²)

Expand to show TLE details & history
Last TLE update: 2 days ago

TLE from 2 days ago
0 NOAA 16 DEB
1 41142U 00055BZ  26170.61401740  .00109122  00000-0  44419-2 0  9990
2 41142  98.8282  44.4675 0011208 189.4601 170.6422 15.23975363554125
Epoch: 2026-06-19T14:44Z
TLE epoch observation values (Epoch: 2026-06-19T14:44:11.103Z)
Latitude
-0.00007°
Longitude
-84.41922°
Altitude
504.517 km
Speed
7.608 km/s
True Right ascension
02h 57m 52s
True Declination
0° 00' 00"
Sunlit
Object was in daylight at epoch
Visualization orbit readout
Latitude
Unknown
Longitude
Unknown
Altitude
Unknown
Speed
Unknown
Apparent Right ascension
Unknown
Apparent Declination
Unknown
Sunlit
N/A
Visualization observer readout
Local Sidereal Time
00:28:56
Azimuth
Unknown
Elevation
Unknown
Doppler factor
Unknown
Orbital elements
Apogee altitude
498.59 km
Perigee altitude
483.192 km
Semi-major axis
6,869.028 km
Eccentricity
0.00112
Inclination
98.8282°
RAAN
44.4675°
Arg. of periapsis
189.4601°
True anomaly
170.66305°
Mean anomaly
170.6422°
Eccentric anomaly
170.65263°
Mean motion
3.81242 °/min
Orbital period
94.43 mins
BSTAR
0.0044419
Loading maneuver chart data...
Computing Atmospheric mass density...
Loading historical data...
Loading historical data...
Loading historical data...
Loading historical data...
Loading historical data...
Loading historical data...
Loading historical data...

Documentation

Showing up to 5 results
|